Simultaneous Nadir Overpasses (SNOs) Predictions

Prediction of SNOs between AQUA and GOES-15 Satellite Orbit:

Table of predicted SNOs for the next 14.0 days since TLE Epoch: 3/29/2013
Index Date Time (AQUA) AQUA Lat,Lon GOES-15 Lat,Lon Distance(km) Time Diff (sec)
1 03/29/2013 10:50:56 0.79,-138.63 0.02,-135.13 399.07 80
2 03/31/2013 10:38:48 0.16,-135.69 0.02,-135.06 71.02 80
3 04/02/2013 10:26:40 -0.48,-132.74 0.02,-134.99 256.52 80
4 04/02/2013 22:48:04 -0.68,-137.92 -0.02,-134.95 338.78 80
5 04/04/2013 22:35:55 -0.08,-134.97 -0.03,-134.87 11.98 80
6 04/06/2013 22:23:46 0.55,-132.02 -0.03,-134.79 315.51 80
7 04/07/2013 10:45:02 0.55,-137.17 0.03,-134.80 270.48 80
8 04/09/2013 10:32:53 -0.09,-134.22 0.03,-134.72 56.35 80
9 04/11/2013 10:20:43 -0.69,-131.26 0.02,-134.63 382.74 80
10 04/11/2013 22:42:07 -0.45,-136.45 -0.03,-134.58 212.63 80




NCC Satellite Simultaneous Nadir Overpasses (SNOs) Prediction Service
